Change the Weather History Date:

Monday, February 16, 2015

  Actual Average Record
Temperature  
Mean Temperature 72 °F -  
Max Temperature 81 °F 79 °F 87 °F (1988)
Min Temperature 64 °F 66 °F 61 °F (1993)
Cooling Degree Days 8    
Growing Degree Days 22 (Base 50)    
Moisture  
Dew Point 63 °F    
Average Humidity 71    
Maximum Humidity 84    
Minimum Humidity 56    
Precipitation  
Precipitation 0.00 in - - ()
Sea Level Pressure  
Sea Level Pressure 29.97 in    
Wind  
Wind Speed 5 mph (North)    
Max Wind Speed 12 mph    
Max Gust Speed -    
Visibility 10 miles    
Events      
Averages and records for this station are not official NWS values.
T = Trace of Precipitation, MM = Missing Value Source: NWS Daily Summary

Daily Weather History Graph

Daily Weather History Graph

Search for Another Location

Airport or City:

Trip Planner

Search our weather history database for the weather conditions in past years. The results will help you decide how hot, cold, wet, or windy it might be!

Date:

Astronomy

Feb. 16, 2015 Rise Set
Actual Time 6:52 AM HST 6:24 PM HST
Civil Twilight 6:30 AM HST 6:46 PM HST
Nautical Twilight 6:04 AM HST 7:12 PM HST
Astronomical Twilight 5:38 AM HST 7:38 PM HST
Moon 4:45 AM HST (2/16) 4:24 PM HST (2/16)
Length of Visible Light 12h 16m
Length of Day
11h 31m
Waning Crescent, 6% of the Moon is Illuminated
Feb 16
Waning Crescent
Feb 18
New
Feb 25
First Quarter
Mar 5
Full
Mar 13
Last Quarter

Hourly Weather History & Observations

Time (HST) Temp. Heat Index Dew Point Humidity Pressure Visibility Wind Dir Wind Speed Gust Speed Precip Events Conditions
12:53 AM 70.0 °F - 62.1 °F 76% 29.96 in 10.0 mi East 5.8 mph - N/A   Clear
1:53 AM 68.0 °F - 62.1 °F 81% 29.95 in 10.0 mi NE 3.5 mph - N/A   Clear
2:53 AM 66.9 °F - 62.1 °F 84% 29.96 in 10.0 mi ENE 3.5 mph - N/A   Clear
3:53 AM 66.0 °F - 61.0 °F 84% 29.95 in 10.0 mi Calm Calm - N/A   Clear
4:53 AM 66.0 °F - 60.1 °F 81% 29.96 in 10.0 mi NE 5.8 mph - N/A   Clear
5:53 AM 66.0 °F - 60.1 °F 81% 29.95 in 10.0 mi Calm Calm - N/A   Clear
6:53 AM 64.9 °F - 60.1 °F 84% 29.97 in 10.0 mi ENE 4.6 mph - N/A   Clear
7:53 AM 69.1 °F - 62.1 °F 78% 30.00 in 8.0 mi Calm Calm - N/A   Clear
8:53 AM 77.0 °F - 60.1 °F 56% 30.01 in 10.0 mi North 3.5 mph - N/A   Partly Cloudy
9:53 AM 77.0 °F - 61.0 °F 58% 30.03 in 10.0 mi SW 8.1 mph - N/A   Clear
10:53 AM 77.0 °F - 63.0 °F 62% 30.02 in 10.0 mi West 4.6 mph - N/A   Clear
11:53 AM 80.1 °F 81.9 °F 64.9 °F 60% 29.96 in 10.0 mi South 10.4 mph - N/A   Clear
12:53 PM 79.0 °F - 66.0 °F 64% 29.97 in 10.0 mi WSW 5.8 mph - N/A   Clear
1:53 PM 81.0 °F 83.3 °F 66.9 °F 62% 29.98 in 10.0 mi WNW 8.1 mph - N/A   Clear
2:53 PM 80.1 °F 81.9 °F 64.9 °F 60% 29.95 in 10.0 mi NW 9.2 mph - N/A   Clear
3:53 PM 79.0 °F - 66.0 °F 64% 29.94 in 10.0 mi NW 9.2 mph - N/A   Clear
4:53 PM 79.0 °F - 66.0 °F 64% 29.94 in 10.0 mi NW 11.5 mph - N/A   Clear
5:53 PM 78.1 °F - 66.0 °F 66% 29.95 in 10.0 mi North 11.5 mph - N/A   Clear
6:53 PM 75.9 °F - 66.0 °F 71% 29.96 in 10.0 mi North 10.4 mph - N/A   Clear
7:53 PM 75.0 °F - 66.0 °F 73% 29.99 in 10.0 mi North 10.4 mph - N/A   Clear
8:53 PM 73.0 °F - 66.0 °F 79% 29.99 in 10.0 mi North 6.9 mph - N/A   Clear
9:53 PM 71.1 °F - 62.1 °F 73% 30.00 in 10.0 mi ENE 3.5 mph - N/A   Clear
10:53 PM 70.0 °F - 62.1 °F 76% 30.00 in 10.0 mi ENE 4.6 mph - N/A   Clear
11:53 PM 71.1 °F - 62.1 °F 73% 29.99 in 10.0 mi ESE 5.8 mph - N/A   Clear